Terminal Aerodrome Forecast
Issued by NWS Sterling, VA

Home | Current Version | Previous Version | Text Only | Print | Product List | Glossary On
Versions: 1 2 3 4 5 6 7 8 9 10 11 12 13 14 15 16 17 18 19 20 21 22 23 24 25
000
FTUS41 KLWX 292051 AAA
TAFIAD
TAF AMD
KIAD 292051Z 2921/3024 23010G17KT P6SM SCT040 BKN060
     FM292200 23010G17KT P6SM VCTS SCT040CB BKN060
     FM300100 VRB03KT P6SM BKN035
     FM300700 VRB03KT 5SM BR SCT025 BKN200
     FM301200 09005KT P6SM SCT015 BKN025
     FM301600 14006KT P6SM BKN035
     FM302000 17008KT P6SM SCT050=

USA.gov is the U.S. government's official web portal to all federal, state and local government web resources and services.